THORAD DELTA 1 DEB, 42601

Orbit data source: Space-Track

THORAD DELTA 1 DEB, 42601 is space debris in SSO originally from a launch on Fri, 15 Nov 1974 UTC launched from the Air Force Western Test Range (AFWTR). Debris objects in space refer to the collection of defunct objects orbiting the Earth. Examples of debris include non-operational satellites, rocket bodies, and fragments generated from explosions, collisions, or faulty payload assembly.

Loading next visibility...
Identifier
42601, 1974-089FS
Orbit
SSO
Country
Flag of USUS
Related business
Manufacturer
Unknown
Mission
Spacecraft
Bus & Motor
Unknown
Mass
Unknown
Launch date (UTC)
1974-11-15 (51 years ago)
Launch vehicle
Unknown
Launch site
Air Force Western Test Range (AFWTR)
Object type
Payload
Rocket body
Debris
Shape & HBR
Unknown shape, 0.1 m
Radar Cross Section
Small (<0.1 m²)

Expand to show TLE details & history
Last TLE update: 1 day ago

TLE from 1 day ago
0 THORAD DELTA 1 DEB
1 42601U 74089FS  25290.67154113  .00000393  00000-0  10802-2 0  9995
2 42601 101.4487 243.8527 0314499  90.9397  30.0988 13.04704682957619
Epoch: 2025-10-17T16:07Z
TLE epoch observation values (Epoch: 2025-10-17T16:07:01.153Z)
Latitude
55.46919°
Longitude
172.71019°
Altitude
1,047.3 km
Speed
7.432 km/s
True Right ascension
05h 23m 30s
True Declination
55° 18' 53"
Sunlit
Object was in daylight at epoch
Visualization orbit readout
Latitude
Unknown
Longitude
Unknown
Altitude
Unknown
Speed
Unknown
Apparent Right ascension
Unknown
Apparent Declination
Unknown
Sunlit
N/A
Visualization observer readout
Local Sidereal Time
11:49:43
Azimuth
Unknown
Elevation
Unknown
Doppler factor
Unknown
Orbital elements
Apogee altitude
1,480.793 km
Perigee altitude
1,001.54 km
Semi-major axis
7,619.303 km
Eccentricity
0.03145
Inclination
101.4487°
RAAN
243.8527°
Arg. of periapsis
90.9397°
True anomaly
31.96933°
Mean anomaly
30.0988°
Eccentric anomaly
31.02762°
Mean motion
3.2634 °/min
Orbital period
110.31 mins
BSTAR
0.0010802
Loading maneuver chart data...
Computing Atmospheric mass density...

Documentation

Showing up to 5 results
|